Pellston, MI

5:43 PM EDT on August 20, 2017 (GMT -0400)
Pellston Regional Airport Of Emmet County

Weather History for KPLN - June, 2012

Change the Weather History Date:

Sunday, June 17, 2012

  Actual Average Record
Temperature  
Mean Temperature 67 °F -  
Max Temperature 73 °F 73 °F 93 °F (2006)
Min Temperature 60 °F 48 °F 30 °F (1972)
Cooling Degree Days 2    
Growing Degree Days 17 (Base 50)    
Moisture  
Dew Point 62 °F    
Average Humidity 81    
Maximum Humidity 100    
Minimum Humidity 44    
Precipitation  
Precipitation 0.48 in - - ()
Sea Level Pressure  
Sea Level Pressure 29.79 in    
Wind  
Wind Speed 8 mph (SW)    
Max Wind Speed 14 mph    
Max Gust Speed 23 mph    
Visibility 8 miles    
Events Rain , Thunderstorm    
Averages and records for this station are not official NWS values.
T = Trace of Precipitation, MM = Missing Value Source: NWS Daily Summary

Daily Weather History Graph

Daily Weather History Graph

Search for Another Location

Airport or City:

Trip Planner

Search our weather history database for the weather conditions in past years. The results will help you decide how hot, cold, wet, or windy it might be!

Date:

Astronomy

Jun. 17, 2012 Rise Set
Actual Time 5:49 AM EDT 9:30 PM EDT
Civil Twilight 5:11 AM EDT 10:09 PM EDT
Nautical Twilight 4:20 AM EDT 11:00 PM EDT
Astronomical Twilight 3:11 AM EDT 12:09 AM EDT
Moon 4:21 AM EDT (6/17) 7:56 PM EDT (6/17)
Length of Visible Light 16h 57m
Length of Day
15h 41m
Waning Crescent, 4% of the Moon is Illuminated
Jun 17
Waning Crescent
Jun 19
New
Jun 26
First Quarter
Jul 3
Full
Jul 10
Last Quarter

Hourly Weather History & Observations

Time (EDT) Temp. Dew Point Humidity Pressure Visibility Wind Dir Wind Speed Gust Speed Precip Events Conditions
12:09 AM 69.8 °F 66.2 °F 88% 29.85 in 2.5 mi South 6.9 mph - 0.08 in Rain , Thunderstorm Heavy Rain
12:42 AM 69.8 °F 68.0 °F 94% 29.84 in 3.0 mi South 5.8 mph - 0.25 in Rain Rain
12:49 AM 69.8 °F 68.0 °F 94% 29.83 in 4.0 mi South 9.2 mph - 0.27 in Rain , Thunderstorm Rain
12:54 AM 69.1 °F 68.0 °F 96% 29.82 in 4.0 mi South 9.2 mph - 0.28 in Rain , Thunderstorm Rain
1:19 AM 69.8 °F 68.0 °F 94% 29.80 in 10.0 mi South 9.2 mph - 0.02 in Rain Light Rain
1:54 AM 68.0 °F 66.9 °F 96% 29.78 in 8.0 mi SSE 8.1 mph - 0.02 in   Scattered Clouds
2:23 AM 68.0 °F 66.2 °F 94% 29.78 in 7.0 mi SSE 6.9 mph - N/A   Scattered Clouds
2:54 AM 69.1 °F 66.9 °F 93% 29.77 in 9.0 mi South 6.9 mph 19.6 mph N/A   Mostly Cloudy
3:54 AM 70.0 °F 66.0 °F 87% 29.75 in 10.0 mi SSW 10.4 mph 17.3 mph N/A   Scattered Clouds
4:24 AM 69.8 °F 66.2 °F 88% 29.76 in 10.0 mi SW 9.2 mph 18.4 mph N/A Thunderstorm Partly Cloudy
4:44 AM 68.0 °F 66.2 °F 94% 29.78 in 2.0 mi SW 10.4 mph 23.0 mph 0.12 in Rain , Thunderstorm Heavy Rain
4:52 AM 68.0 °F 66.2 °F 94% 29.78 in 6.0 mi SW 6.9 mph 17.3 mph 0.13 in Rain , Thunderstorm Light Thunderstorms and Rain
4:54 AM 68.0 °F 66.0 °F 93% 29.77 in 7.0 mi SW 8.1 mph 17.3 mph 0.13 in Rain , Thunderstorm Light Thunderstorms and Rain
5:21 AM 68.0 °F 66.2 °F 94% 29.78 in 10.0 mi SSW 5.8 mph - 0.01 in Rain Light Rain
5:54 AM 69.1 °F 66.9 °F 93% 29.78 in 10.0 mi SW 10.4 mph - 0.01 in   Overcast
6:13 AM 69.8 °F 66.2 °F 88% 29.80 in 10.0 mi SW 9.2 mph 17.3 mph N/A   Overcast
6:54 AM 69.1 °F 66.0 °F 90% 29.77 in 9.0 mi WSW 10.4 mph - N/A   Overcast
7:10 AM 68.0 °F 66.2 °F 94% 29.79 in 2.5 mi West 13.8 mph 20.7 mph 0.03 in Rain Rain
7:15 AM 68.0 °F 66.2 °F 94% 29.79 in 3.0 mi West 12.7 mph 20.7 mph 0.03 in Rain Light Rain
7:24 AM 66.2 °F 66.2 °F 100% 29.78 in 5.0 mi West 11.5 mph - 0.04 in Rain Light Rain
7:54 AM 66.0 °F 64.0 °F 93% 29.77 in 10.0 mi WNW 11.5 mph 20.7 mph 0.04 in   Overcast
8:54 AM 64.9 °F 63.0 °F 93% 29.78 in 10.0 mi Variable 3.5 mph - 0.00 in   Overcast
9:26 AM 64.4 °F 62.6 °F 94% 29.81 in 10.0 mi SSW 3.5 mph - N/A   Overcast
9:35 AM 64.4 °F 60.8 °F 88% 29.80 in 10.0 mi SW 4.6 mph - N/A   Overcast
9:54 AM 64.0 °F 60.1 °F 87% 29.81 in 10.0 mi WSW 6.9 mph - N/A   Mostly Cloudy
10:54 AM 70.0 °F 62.1 °F 76% 29.81 in 10.0 mi WSW 5.8 mph - N/A   Clear
11:54 AM 73.0 °F 57.9 °F 59% 29.80 in 10.0 mi West 8.1 mph 16.1 mph N/A   Partly Cloudy
12:54 PM 73.0 °F 57.9 °F 59% 29.80 in 10.0 mi SW 12.7 mph 19.6 mph N/A   Clear
1:54 PM 73.0 °F 57.9 °F 59% 29.79 in 10.0 mi Variable 5.8 mph 16.1 mph N/A   Partly Cloudy
2:54 PM 73.9 °F 53.1 °F 48% 29.80 in 10.0 mi WSW 13.8 mph 19.6 mph N/A   Clear
3:54 PM 73.0 °F 50.0 °F 44% 29.79 in 10.0 mi WSW 13.8 mph 23.0 mph N/A   Clear
4:54 PM 73.0 °F 52.0 °F 48% 29.79 in 10.0 mi WSW 13.8 mph 20.7 mph N/A   Clear
5:54 PM 73.0 °F 52.0 °F 48% 29.80 in 10.0 mi Variable 6.9 mph 21.9 mph N/A   Clear
6:54 PM 73.0 °F 52.0 °F 48% 29.79 in 10.0 mi West 6.9 mph - N/A   Clear
7:54 PM 71.1 °F 51.1 °F 49% 29.79 in 10.0 mi WSW 9.2 mph - N/A   Clear
8:54 PM 66.9 °F 53.1 °F 61% 29.80 in 10.0 mi Calm Calm - N/A   Clear
9:54 PM 62.1 °F 54.0 °F 75% 29.80 in 10.0 mi Calm Calm - N/A   Clear
10:54 PM 61.0 °F 55.9 °F 83% 29.79 in 10.0 mi Calm Calm - N/A   Clear
11:54 PM 60.1 °F 55.9 °F 86% 29.77 in 10.0 mi SE 3.5 mph - N/A   Clear